Stations météo

réclame
Mon MeteoGroup
Europlatform, Pays-Bas (6321): Température de l'air & dewpoint: 11.01.2018 08:00:00 - 17.01.2018 08:00:00 (CET)Europlatform, Pays-Bas (6321): water temperature: 11.01.2018 08:00:00 - 17.01.2018 08:00:00 (CET)Europlatform, Pays-Bas (6321): Vitesse du vent & gusts: 11.01.2018 08:00:00 - 17.01.2018 08:00:00 (CET)Europlatform, Pays-Bas (6321): Direction du vent: 11.01.2018 08:00:00 - 17.01.2018 08:00:00 (CET)Europlatform, Pays-Bas (6321): reduced air pressure: 11.01.2018 08:00:00 - 17.01.2018 08:00:00 (CET)Europlatform, Pays-Bas (6321): visibility: 11.01.2018 08:00:00 - 17.01.2018 08:00:00 (CET)
Date & Time tt [°C] td [°C] tw [°C] ff [km/h] ff [knt] fx [km/h] fx [knt] dd ppp [hPa] vv [km]
17.01.2018 08:00:00 - - - - - - - - - -
17.01.2018 07:00:00 4,8 -0,7 6,8 70 38 76 41 W 996,3 10
17.01.2018 06:00:00 4,8 -1,1 6,8 68 37 76 41 W 995,2 10
17.01.2018 05:00:00 4,7 -0,9 6,8 67 36 76 41 W 994,3 10
17.01.2018 04:00:00 5,0 -1,2 6,7 63 34 76 41 W 993,6 10
17.01.2018 03:00:00 5,0 -0,9 6,7 63 34 68 37 W 992,9 10
17.01.2018 02:00:00 5,1 -0,8 6,7 57 31 65 35 W 992,4 10
17.01.2018 01:00:00 5,3 0,2 6,7 59 32 61 33 W 992,1 10
17.01.2018 00:00:00 5,6 0,3 6,8 57 31 68 37 W 992,0 10
16.01.2018 23:00:00 6,2 0,3 6,8 61 33 65 35 W 991,9 10
16.01.2018 22:00:00 6,6 1,7 6,8 54 29 61 33 WSW 992,2 10
16.01.2018 21:00:00 6,9 0,1 6,8 52 28 61 33 WSW 992,3 10
16.01.2018 20:00:00 7,1 0,7 6,8 54 29 61 33 WSW 992,6 10
16.01.2018 19:00:00 7,0 -0,9 6,9 54 29 61 33 WSW 992,7 10
16.01.2018 18:00:00 6,9 -0,2 6,8 54 29 61 33 W 993,4 10
16.01.2018 17:00:00 6,8 -0,5 6,9 57 31 65 35 WSW 993,7 10
16.01.2018 16:00:00 6,8 0,0 6,8 57 31 61 33 W 993,8 10
16.01.2018 15:00:00 6,9 -0,8 6,8 54 29 65 35 W 993,5 10
16.01.2018 14:00:00 6,8 0,5 6,8 50 27 65 35 WSW 993,6 22
16.01.2018 13:00:00 6,6 1,2 6,8 57 31 72 39 W 993,6 10
16.01.2018 12:00:00 6,5 0,7 6,8 61 33 - - W 993,7 10
16.01.2018 11:00:00 6,6 1,8 6,8 59 32 68 37 W 993,2 10
16.01.2018 10:00:00 6,6 1,5 6,9 63 34 68 37 W 992,4 10
16.01.2018 09:00:00 4,9 2,0 7,0 57 31 72 39 WNW 991,4 7
16.01.2018 08:00:00 6,3 3,7 7,0 42 23 72 39 W 990,5 10
16.01.2018 07:00:00 7,8 2,8 7,0 57 31 72 39 WSW 990,0 10
16.01.2018 06:00:00 7,9 3,5 7,0 63 34 68 37 WSW 990,1 10
16.01.2018 05:00:00 7,9 4,0 6,9 54 29 68 37 WSW 990,6 10
16.01.2018 04:00:00 7,8 4,1 6,8 61 33 68 37 WSW 990,9 10
16.01.2018 03:00:00 8,0 3,8 - 59 32 65 35 WSW 991,2 10
16.01.2018 02:00:00 8,0 3,9 6,9 55 30 61 33 WSW 991,7 10
16.01.2018 01:00:00 8,0 4,4 6,8 54 29 61 33 SW 992,7 10
16.01.2018 00:00:00 8,2 3,5 6,8 54 29 61 33 WSW 992,9 10
15.01.2018 23:00:00 8,1 3,8 6,8 52 28 58 31 W 992,1 10
15.01.2018 22:00:00 8,1 3,7 6,8 50 27 58 31 W 991,5 10
15.01.2018 21:00:00 8,5 4,5 6,8 52 28 65 35 W 991,5 10
15.01.2018 20:00:00 8,8 5,7 6,9 50 27 54 29 W 990,6 10
15.01.2018 19:00:00 9,1 6,3 6,8 52 28 61 33 W 989,7 10
15.01.2018 18:00:00 9,4 8,2 6,8 46 25 68 37 SW 989,4 8
15.01.2018 17:00:00 6,9 6,6 6,8 72 39 79 43 S 989,4 3,9
15.01.2018 16:00:00 6,7 6,4 6,8 68 37 79 43 S 990,5 3,8
15.01.2018 15:00:00 6,3 5,9 6,8 74 40 83 45 S 992,8 4,6
15.01.2018 14:00:00 6,2 5,7 6,8 72 39 79 43 S 994,7 4,3
15.01.2018 13:00:00 5,9 5,5 6,8 70 38 83 45 S 997,2 2,9
15.01.2018 12:00:00 6,1 5,4 6,8 72 39 79 43 S 998,8 5
15.01.2018 11:00:00 6,0 5,2 6,7 68 37 76 41 S 1001,1 3,5
15.01.2018 10:00:00 5,3 4,6 6,8 63 34 68 37 S 1003,3 4,6
15.01.2018 09:00:00 5,6 4,3 6,8 61 33 68 37 S 1004,7 7
15.01.2018 08:00:00 5,0 4,0 6,8 57 31 65 35 S 1005,7 5
15.01.2018 07:00:00 4,9 4,2 6,8 57 31 61 33 S 1007,5 3,6
15.01.2018 06:00:00 5,3 4,5 6,8 55 30 58 31 S 1008,4 2,6
15.01.2018 05:00:00 5,8 3,9 6,8 44 24 50 27 S 1010,2 6
15.01.2018 04:00:00 5,7 3,7 6,9 42 23 43 23 S 1011,1 7
15.01.2018 03:00:00 6,0 3,7 6,9 42 23 43 23 S 1012,1 9
15.01.2018 02:00:00 5,5 3,4 6,8 34 18 40 21 S 1013,4 8
15.01.2018 01:00:00 5,3 3,0 6,9 39 21 43 23 SSW 1014,6 8
15.01.2018 00:00:00 5,0 2,3 6,8 35 19 40 21 SSW 1015,3 7
14.01.2018 23:00:00 4,6 2,4 6,8 29 16 36 19 S 1016,0 6
14.01.2018 22:00:00 4,7 2,3 6,9 29 16 36 19 S 1016,4 8
14.01.2018 21:00:00 5,3 2,0 6,9 29 16 32 18 S 1016,8 10
14.01.2018 20:00:00 5,3 1,6 6,9 28 15 32 18 SSE 1017,3 10
14.01.2018 19:00:00 5,2 1,7 6,9 28 15 32 18 SSE 1017,2 10
14.01.2018 18:00:00 5,0 1,5 6,9 22 12 29 16 SE 1017,8 10
14.01.2018 17:00:00 5,1 1,5 6,8 22 12 29 16 SE 1017,7 10
14.01.2018 16:00:00 5,0 1,6 6,9 21 11 22 12 SE 1018,2 10
14.01.2018 15:00:00 4,7 1,6 6,9 18 10 22 12 ESE 1018,4 10
14.01.2018 14:00:00 4,4 1,8 6,9 22 12 25 14 ESE 1018,6 10
14.01.2018 13:00:00 4,3 1,4 6,9 26 14 32 18 E 1019,1 10
14.01.2018 12:00:00 4,3 1,4 6,8 34 18 40 21 E 1019,6 10
14.01.2018 11:00:00 4,5 1,2 6,8 35 19 40 21 E 1019,9 10
14.01.2018 10:00:00 4,6 0,9 6,9 37 20 43 23 E 1019,9 10
14.01.2018 09:00:00 5,0 1,6 6,9 35 19 40 21 E 1019,7 10
14.01.2018 08:00:00 4,9 1,8 6,9 34 18 36 19 E 1019,9 10
14.01.2018 07:00:00 5,1 2,1 6,9 35 19 36 19 ENE 1019,9 10
14.01.2018 06:00:00 5,2 2,1 6,9 34 18 36 19 E 1019,8 10
14.01.2018 05:00:00 5,2 1,8 6,9 31 17 32 18 E 1020,0 10
14.01.2018 04:00:00 5,1 1,2 6,9 29 16 32 18 E 1020,2 10
14.01.2018 03:00:00 5,4 1,9 6,9 28 15 32 18 ENE 1020,4 10
14.01.2018 02:00:00 5,7 1,4 6,9 28 15 32 18 E 1020,6 10
14.01.2018 01:00:00 5,4 1,2 6,9 29 16 32 18 E 1020,9 10
14.01.2018 00:00:00 5,2 1,2 6,9 26 14 29 16 E 1021,4 10
13.01.2018 23:00:00 5,5 1,6 6,9 28 15 32 18 ESE 1021,5 10
13.01.2018 22:00:00 5,8 1,4 6,9 29 16 40 21 ESE 1021,5 10
13.01.2018 21:00:00 6,0 2,0 6,8 35 19 36 19 E 1021,7 10
13.01.2018 20:00:00 6,1 2,2 6,9 26 14 29 16 ESE 1021,9 10
13.01.2018 19:00:00 6,1 1,6 6,9 31 17 36 19 ESE 1021,8 10
13.01.2018 18:00:00 5,9 1,8 6,9 31 17 36 19 ESE 1021,9 10
13.01.2018 17:00:00 5,6 3,3 6,9 22 12 25 14 E 1021,8 6
13.01.2018 16:00:00 5,4 3,3 7,0 22 12 29 16 E 1022,1 6
13.01.2018 15:00:00 5,3 2,5 6,9 26 14 32 18 ESE 1022,3 8
13.01.2018 14:00:00 4,8 3,0 7,0 28 15 32 18 ESE 1022,8 4,7
13.01.2018 13:00:00 5,0 3,5 7,0 31 17 32 18 ESE 1023,3 4,7
13.01.2018 12:00:00 5,0 4,0 7,0 29 16 32 18 ESE 1024,0 3,9
13.01.2018 11:00:00 3,9 3,9 7,0 29 16 36 19 ESE 1024,1 0,6
13.01.2018 10:00:00 3,4 3,3 6,9 29 16 32 18 ESE 1024,0 0,3
13.01.2018 09:00:00 4,1 3,8 6,9 24 13 32 18 ESE 1023,8 1,8
13.01.2018 08:00:00 4,9 4,1 7,0 24 13 29 16 ESE 1023,7 3,0
13.01.2018 07:00:00 5,4 4,3 7,0 21 11 29 16 SE 1023,8 3,8
13.01.2018 06:00:00 6,0 4,2 7,0 22 12 29 16 SE 1024,3 3,0
13.01.2018 05:00:00 6,1 5,2 7,0 22 12 25 14 ESE 1024,4 3,0
13.01.2018 04:00:00 6,1 5,1 7,0 21 11 25 14 SE 1024,7 2,9
13.01.2018 03:00:00 6,1 5,3 7,0 21 11 22 12 ESE 1024,9 2,9
13.01.2018 02:00:00 6,0 5,3 7,0 18 10 22 12 ESE 1025,1 2,8
13.01.2018 01:00:00 5,9 5,2 7,0 18 10 22 12 SE 1025,6 3,0
13.01.2018 00:00:00 5,7 4,6 7,0 16 9 22 12 ESE 1026,0 5
12.01.2018 23:00:00 5,7 4,7 6,9 15 8 18 10 ESE 1026,2 6
12.01.2018 22:00:00 6,1 4,7 6,9 13 7 18 10 SE 1026,3 4,8
12.01.2018 21:00:00 6,1 5,2 6,9 16 9 18 10 ESE 1026,4 4,3
12.01.2018 20:00:00 6,4 4,7 6,9 11 6 14 8 ESE 1026,5 6
12.01.2018 19:00:00 6,4 5,0 6,8 9 5 11 6 SE 1026,6 5
12.01.2018 18:00:00 6,3 4,7 6,9 11 6 14 8 E 1026,6 10
12.01.2018 17:00:00 6,4 4,5 6,9 15 8 18 10 E 1026,4 10
12.01.2018 16:00:00 6,3 4,6 6,9 13 7 14 8 E 1026,3 10
12.01.2018 15:00:00 6,2 5,1 6,9 11 6 14 8 ENE 1026,4 7
12.01.2018 14:00:00 6,6 5,5 7,0 15 8 14 8 NE 1026,5 6
12.01.2018 13:00:00 6,9 5,9 6,9 13 7 11 6 E 1026,8 4,4
12.01.2018 12:00:00 7,4 6,0 6,9 9 5 11 6 ENE 1027,2 8
12.01.2018 11:00:00 7,3 6,3 6,8 5 3 11 6 NE 1027,2 5
12.01.2018 10:00:00 7,4 6,1 6,8 9 5 14 8 N 1027,0 7
12.01.2018 09:00:00 7,5 5,9 6,9 11 6 14 8 N 1026,8 9
12.01.2018 08:00:00 7,4 5,7 6,9 16 9 18 10 N 1026,6 10
12.01.2018 07:00:00 7,4 5,3 6,8 18 10 22 12 N 1026,2 10
12.01.2018 06:00:00 7,5 5,1 6,9 16 9 18 10 N 1025,9 10
12.01.2018 05:00:00 7,3 5,5 6,9 21 11 22 12 NNW 1025,7 10
12.01.2018 04:00:00 7,3 4,7 6,9 16 9 18 10 NNW 1025,6 10
12.01.2018 03:00:00 7,2 4,5 6,8 16 9 22 12 N 1025,6 10
12.01.2018 02:00:00 6,9 5,0 6,8 15 8 18 10 NNW 1025,4 10
12.01.2018 01:00:00 6,6 4,9 6,8 15 8 18 10 NNW 1025,2 10
12.01.2018 00:00:00 6,2 4,9 6,8 15 8 18 10 NNE 1025,1 10
11.01.2018 23:00:00 6,1 4,8 6,8 11 6 22 12 N 1024,6 10
11.01.2018 22:00:00 6,3 4,6 6,8 15 8 22 12 NNE 1024,2 10
11.01.2018 21:00:00 6,1 4,6 6,8 18 10 22 12 NNE 1024,0 10
11.01.2018 20:00:00 5,5 5,3 6,8 16 9 22 12 N 1023,1 3,6
11.01.2018 19:00:00 5,3 5,2 6,8 16 9 25 14 NE 1022,2 1,5
11.01.2018 18:00:00 5,8 5,6 6,8 16 9 22 12 NE 1021,4 4,7
11.01.2018 17:00:00 5,4 5,4 6,8 13 7 18 10 NNE 1020,7 1,4
11.01.2018 16:00:00 5,6 5,6 6,8 11 6 14 8 NE 1020,0 0,3
11.01.2018 15:00:00 5,4 5,4 6,8 8 4 11 6 N 1019,3 0,2
11.01.2018 14:00:00 5,2 5,2 6,8 8 4 14 8 NE 1018,5 0,2
11.01.2018 13:00:00 5,3 5,2 6,8 11 6 14 8 ENE 1018,1 0,2
11.01.2018 12:00:00 5,5 5,5 6,9 4 2 11 6 - 1017,7 0,2
11.01.2018 11:00:00 5,6 5,4 6,8 2 1 7 4 - 1017,1 0,2
11.01.2018 10:00:00 5,6 5,6 6,8 5 3 7 4 SE 1016,1 0,2
11.01.2018 09:00:00 5,7 5,7 6,8 4 2 11 6 S 1015,2 1,6
11.01.2018 08:00:00 5,8 5,5 6,8 8 4 14 8 SE 1014,0 2,5

tt = Température de l'air
td = dewpoint
tw = water temperature
ff = Vitesse du vent
fx = gusts
dd = Direction du vent
ppp = reduced air pressure
vv = visibility

stations d'obs. à proximité